ARG2559 VHHH-VTSP

Flight info

Callsign ARG2559
Flight time N/A
Altitude 36000
Route PECAN V10 SIKOU/K0865S1100 A202 ASSAD/K0865F360 A202 VILAO/N0467F360 A202 ENBIL/N0461F380 A202 RAMEI W42 MENEX Y8 SAVSA SAVSA1C
Aircraft B737/M-SDE2E3FGHIRWXY/LB1

Departure

Time N/A
Airport Hong Kong International Airport (VHHH)

Arrival

Time 2026-05-05 19:20
Airport Phuket International Airport (VTSP)
Time Latitude Longitude Altitude Speed Heading
2026-05-05 19:06 8.31198 98.29090 6664 ft 295 kts 240°
2026-05-05 19:06 8.30155 98.27297 6406 ft 294 kts 239°
2026-05-05 19:07 8.29146 98.25538 6250 ft 283 kts 239°
2026-05-05 19:07 8.28191 98.23859 6082 ft 276 kts 239°
2026-05-05 19:07 8.27235 98.22189 5938 ft 274 kts 239°
2026-05-05 19:07 8.26274 98.20523 5782 ft 275 kts 239°
2026-05-05 19:08 8.25309 98.18850 5610 ft 274 kts 239°
2026-05-05 19:08 8.24377 98.17232 5532 ft 257 kts 239°
2026-05-05 19:08 8.23508 98.15723 5424 ft 240 kts 239°
2026-05-05 19:08 8.22699 98.14317 5299 ft 224 kts 239°
2026-05-05 19:09 8.21947 98.13011 5137 ft 207 kts 239°
2026-05-05 19:09 8.21240 98.11783 4923 ft 198 kts 238°
2026-05-05 19:09 8.20554 98.10594 4814 ft 196 kts 238°
2026-05-05 19:09 8.19869 98.09384 4700 ft 201 kts 244°
2026-05-05 19:10 8.19552 98.08007 4585 ft 201 kts 263°
2026-05-05 19:10 8.19037 98.06764 4411 ft 189 kts 219°
2026-05-05 19:10 8.17878 98.06320 4298 ft 179 kts 178°
2026-05-05 19:10 8.16680 98.06049 4036 ft 185 kts 212°
2026-05-05 19:11 8.15620 98.05315 4064 ft 188 kts 207°
2026-05-05 19:11 8.14466 98.04704 3995 ft 186 kts 203°
2026-05-05 19:11 8.13323 98.04147 4000 ft 179 kts 202°
2026-05-05 19:11 8.12192 98.03614 3997 ft 180 kts 201°
2026-05-05 19:12 8.11059 98.03076 3979 ft 180 kts 201°
2026-05-05 19:12 8.09878 98.02964 3979 ft 168 kts 153°
2026-05-05 19:12 8.09117 98.03790 3890 ft 168 kts 103°
2026-05-05 19:12 8.09069 98.04960 3750 ft 169 kts 91°
2026-05-05 19:13 8.09057 98.06144 3553 ft 166 kts 89°
2026-05-05 19:13 8.09067 98.07279 3372 ft 162 kts 88°
2026-05-05 19:13 8.09139 98.08404 3237 ft 160 kts 85°
2026-05-05 19:13 8.09239 98.09527 3095 ft 161 kts 85°
2026-05-05 19:14 8.09345 98.10656 3019 ft 161 kts 85°
2026-05-05 19:14 8.09450 98.11771 2992 ft 157 kts 85°
2026-05-05 19:14 8.09546 98.12790 3014 ft 137 kts 85°
2026-05-05 19:14 8.09633 98.13711 2932 ft 131 kts 85°
2026-05-05 19:15 8.09722 98.14660 2576 ft 131 kts 84°
2026-05-05 19:15 8.09806 98.15554 2403 ft 127 kts 85°
2026-05-05 19:15 8.09889 98.16447 2300 ft 129 kts 83°
2026-05-05 19:15 8.09976 98.17363 2196 ft 132 kts 83°
2026-05-05 19:16 8.10062 98.18281 2086 ft 131 kts 83°
2026-05-05 19:16 8.10148 98.19196 1976 ft 131 kts 83°
2026-05-05 19:16 8.10234 98.20114 1872 ft 132 kts 83°
2026-05-05 19:16 8.10322 98.21038 1771 ft 132 kts 83°
2026-05-05 19:17 8.10408 98.21957 1688 ft 132 kts 83°
2026-05-05 19:17 8.10496 98.22892 1510 ft 133 kts 83°
2026-05-05 19:17 8.10583 98.23817 1337 ft 133 kts 83°
2026-05-05 19:17 8.10669 98.24736 1168 ft 134 kts 84°
2026-05-05 19:18 8.10757 98.25672 987 ft 133 kts 84°
2026-05-05 19:18 8.10845 98.26597 811 ft 131 kts 84°
2026-05-05 19:18 8.10931 98.27521 639 ft 132 kts 84°
2026-05-05 19:18 8.11018 98.28445 454 ft 133 kts 84°
2026-05-05 19:19 8.11107 98.29410 239 ft 138 kts 84°
2026-05-05 19:19 8.11199 98.30352 50 ft 130 kts 84°
2026-05-05 19:19 8.11276 98.31177 47 ft 100 kts 85°
2026-05-05 19:19 8.11325 98.31721 61 ft 60 kts 84°
2026-05-05 19:20 8.11364 98.32106 69 ft 50 kts 85°
2026-05-05 19:20 8.11336 98.32368 73 ft 23 kts 112°
2026-05-05 19:20 8.11257 98.32419 75 ft 6 kts 217°
2026-05-05 19:20 8.11247 98.32371 74 ft 8 kts 263°
2026-05-05 19:21 8.11240 98.32301 73 ft 12 kts 265°
2026-05-05 19:21 8.11232 98.32209 71 ft 15 kts 265°
2026-05-05 19:21 8.11222 98.32095 68 ft 18 kts 266°
2026-05-05 19:21 8.11212 98.31961 65 ft 20 kts 264°
2026-05-05 19:22 8.11197 98.31811 62 ft 23 kts 264°
2026-05-05 19:22 8.11180 98.31644 58 ft 25 kts 264°
2026-05-05 19:22 8.11160 98.31459 54 ft 27 kts 264°
2026-05-05 19:22 8.11144 98.31262 49 ft 30 kts 265°
2026-05-05 19:23 8.11122 98.31049 43 ft 32 kts 259°
2026-05-05 19:23 8.11077 98.30826 39 ft 33 kts 264°
2026-05-05 19:23 8.11057 98.30646 34 ft 13 kts 244°
2026-05-05 19:23 8.10986 98.30634 34 ft 4 kts 173°
2026-05-05 19:24 8.10981 98.30635 34 ft 0 kts 173°